GFSNW_prec_precacc12_159.txt.gz
Total_Precipitation_Accumulation
0.06 0.06 0.03 0.02 0.00 0.01 0.03 0.04 0.03 0.06 0.04 0.03 0.02 0.00 0.00 0.00 0.00 0.00 0.00 0.00 0.00 0.00 0.00 0.00 0.00 0.00 0.00 0.00 0.00 0.00 0.00 0.00 0.00 0.00 0.00 0.00 0.00 0.00 0.02 0.13 0.12 0.15 0.24 0.15
0.08 0.09 0.05 0.04 0.01 0.01 0.03 0.03 0.03 0.09 0.11 0.02 0.01 0.00 0.00 0.00 0.00 0.00 0.00 0.00 0.00 0.00 0.00 0.00 0.00 0.00 0.00 0.00 0.00 0.00 0.00 0.00 0.00 0.00 0.00 0.01 0.00 0.00 0.02 0.06 0.11 0.10 0.17 0.09
0.16 0.11 0.18 0.12 0.03 0.01 0.05 0.04 0.04 0.09 0.13 0.02 0.00 0.00 0.00 0.00 0.00 0.00 0.00 0.00 0.00 0.00 0.00 0.00 0.00 0.00 0.00 0.00 0.00 0.00 0.00 0.00 0.00 0.00 0.01 0.03 0.03 0.01 0.02 0.12 0.20 0.16 0.13 0.07
0.23 0.30 0.24 0.24 0.25 0.07 0.11 0.09 0.02 0.01 0.03 0.02 0.01 0.00 0.00 0.00 0.00 0.00 0.00 0.00 0.00 0.00 0.00 0.00 0.00 0.00 0.00 0.00 0.00 0.00 0.01 0.00 0.00 0.00 0.00 0.01 0.01 0.00 0.00 0.01 0.02 0.07 0.03 0.01
0.24 0.36 0.46 0.44 0.20 0.21 0.28 0.09 0.03 0.01 0.00 0.00 0.00 0.00 0.00 0.00 0.00 0.00 0.00 0.00 0.00 0.00 0.00 0.00 0.00 0.00 0.01 0.01 0.01 0.01 0.03 0.02 0.02 0.01 0.00 0.01 0.01 0.01 0.00 0.00 0.00 0.00 0.00 0.00
0.36 0.35 0.48 0.50 0.44 0.40 0.40 0.10 0.03 0.03 0.02 0.01 0.01 0.01 0.00 0.00 0.00 0.00 0.00 0.00 0.00 0.00 0.00 0.00 0.00 0.00 0.00 0.00 0.00 0.00 0.01 0.01 0.02 0.02 0.01 0.02 0.01 0.00 0.00 0.00 0.00 0.00 0.01 0.00
0.51 0.47 0.44 0.48 0.45 0.44 0.17 0.03 0.04 0.03 0.04 0.02 0.01 0.00 0.00 0.00 0.00 0.00 0.00 0.00 0.00 0.00 0.00 0.00 0.00 0.00 0.00 0.01 0.00 0.00 0.01 0.01 0.04 0.04 0.07 0.08 0.00 0.00 0.00 0.00 0.00 0.01 0.02 0.01
0.40 0.51 0.49 0.44 0.43 0.38 0.20 0.07 0.05 0.08 0.05 0.02 0.01 0.01 0.00 0.00 0.00 0.00 0.00 0.00 0.00 0.00 0.07 0.09 0.04 0.01 0.01 0.00 0.00 0.00 0.01 0.04 0.09 0.09 0.06 0.02 0.00 0.00 0.00 0.02 0.03 0.01 0.01 0.01
0.19 0.45 0.48 0.44 0.39 0.31 0.26 0.15 0.10 0.12 0.11 0.05 0.01 0.01 0.01 0.02 0.02 0.01 0.00 0.00 0.00 0.02 0.12 0.11 0.07 0.02 0.01 0.01 0.02 0.01 0.02 0.06 0.14 0.10 0.12 0.05 0.02 0.05 0.00 0.01 0.03 0.00 0.00 0.00
0.20 0.33 0.39 0.46 0.39 0.31 0.25 0.19 0.13 0.15 0.13 0.03 0.02 0.03 0.04 0.05 0.04 0.04 0.02 0.03 0.07 0.10 0.16 0.17 0.06 0.03 0.01 0.02 0.05 0.06 0.04 0.08 0.14 0.09 0.13 0.03 0.00 0.02 0.02 0.04 0.06 0.00 0.00 0.00
0.23 0.25 0.35 0.37 0.37 0.33 0.28 0.21 0.19 0.19 0.11 0.03 0.01 0.01 0.02 0.03 0.08 0.09 0.10 0.13 0.13 0.21 0.25 0.17 0.10 0.06 0.05 0.05 0.04 0.11 0.15 0.20 0.13 0.08 0.15 0.06 0.00 0.04 0.07 0.05 0.00 0.00 0.00 0.00
0.22 0.20 0.28 0.33 0.28 0.30 0.23 0.23 0.19 0.25 0.25 0.07 0.02 0.00 0.00 0.00 0.02 0.07 0.13 0.13 0.14 0.19 0.17 0.19 0.19 0.16 0.13 0.10 0.11 0.07 0.13 0.11 0.11 0.08 0.08 0.08 0.03 0.05 0.05 0.02 0.00 0.00 0.00 0.00
0.21 0.20 0.23 0.35 0.29 0.19 0.19 0.18 0.16 0.19 0.22 0.06 0.01 0.00 0.00 0.00 0.00 0.04 0.17 0.07 0.08 0.15 0.12 0.17 0.18 0.14 0.10 0.12 0.08 0.10 0.09 0.07 0.12 0.10 0.04 0.11 0.10 0.01 0.00 0.00 0.00 0.00 0.00 0.00
0.23 0.20 0.25 0.34 0.37 0.29 0.19 0.18 0.13 0.11 0.11 0.07 0.00 0.00 0.00 0.00 0.00 0.00 0.03 0.05 0.07 0.07 0.20 0.29 0.18 0.13 0.10 0.13 0.18 0.22 0.18 0.16 0.24 0.27 0.12 0.06 0.09 0.02 0.01 0.00 0.00 0.00 0.00 0.00
0.26 0.21 0.26 0.34 0.31 0.33 0.28 0.20 0.18 0.09 0.11 0.14 0.01 0.00 0.00 0.00 0.01 0.01 0.03 0.10 0.13 0.16 0.19 0.27 0.14 0.05 0.08 0.06 0.06 0.02 0.01 0.08 0.17 0.23 0.10 0.04 0.05 0.00 0.00 0.00 0.00 0.00 0.00 0.00
0.28 0.22 0.23 0.27 0.29 0.40 0.49 0.61 0.34 0.19 0.15 0.12 0.02 0.00 0.00 0.00 0.00 0.02 0.06 0.12 0.25 0.30 0.21 0.13 0.09 0.04 0.13 0.13 0.05 0.00 0.01 0.03 0.06 0.09 0.04 0.01 0.00 0.00 0.00 0.00 0.00 0.00 0.00 0.00
0.27 0.24 0.22 0.21 0.29 0.30 0.35 0.22 0.08 0.06 0.10 0.15 0.05 0.01 0.02 0.00 0.02 0.07 0.16 0.28 0.35 0.31 0.26 0.16 0.06 0.05 0.14 0.16 0.03 0.01 0.00 0.00 0.00 0.00 0.00 0.00 0.00 0.00 0.00 0.00 0.00 0.00 0.00 0.00
0.23 0.20 0.16 0.16 0.28 0.31 0.21 0.10 0.02 0.12 0.16 0.12 0.08 0.02 0.09 0.07 0.14 0.16 0.19 0.27 0.29 0.34 0.33 0.20 0.06 0.07 0.14 0.12 0.00 0.00 0.00 0.00 0.00 0.00 0.00 0.00 0.00 0.00 0.00 0.00 0.00 0.00 0.00 0.00
0.14 0.13 0.20 0.26 0.27 0.22 0.13 0.07 0.05 0.13 0.22 0.23 0.06 0.02 0.11 0.09 0.15 0.17 0.19 0.20 0.22 0.18 0.13 0.05 0.06 0.14 0.10 0.01 0.00 0.00 0.00 0.00 0.00 0.00 0.00 0.00 0.00 0.00 0.00 0.00 0.00 0.00 0.00 0.00
0.06 0.12 0.20 0.17 0.11 0.09 0.13 0.26 0.38 0.43 0.38 0.16 0.06 0.03 0.09 0.12 0.17 0.25 0.20 0.17 0.16 0.10 0.04 0.04 0.06 0.02 0.00 0.00 0.00 0.00 0.00 0.01 0.00 0.00 0.00 0.00 0.00 0.00 0.00 0.00 0.00 0.00 0.00 0.00
0.06 0.10 0.12 0.13 0.22 0.30 0.35 0.37 0.27 0.25 0.21 0.04 0.01 0.00 0.05 0.11 0.13 0.14 0.14 0.19 0.16 0.12 0.08 0.06 0.05 0.01 0.00 0.00 0.00 0.00 0.02 0.01 0.00 0.00 0.00 0.00 0.00 0.00 0.00 0.00 0.00 0.00 0.00 0.00
0.03 0.09 0.19 0.44 0.41 0.28 0.20 0.20 0.11 0.08 0.05 0.01 0.01 0.01 0.02 0.10 0.06 0.09 0.07 0.10 0.19 0.10 0.04 0.03 0.00 0.00 0.00 0.00 0.01 0.01 0.02 0.02 0.00 0.00 0.00 0.00 0.00 0.00 0.00 0.00 0.00 0.00 0.00 0.00
0.14 0.20 0.23 0.25 0.17 0.18 0.08 0.08 0.04 0.06 0.05 0.03 0.05 0.04 0.06 0.07 0.06 0.09 0.08 0.07 0.02 0.01 0.01 0.00 0.00 0.00 0.00 0.00 0.00 0.00 0.00 0.00 0.00 0.00 0.00 0.00 0.00 0.00 0.00 0.00 0.00 0.00 0.00 0.00
0.14 0.09 0.12 0.13 0.10 0.02 0.02 0.05 0.05 0.06 0.06 0.08 0.07 0.07 0.06 0.04 0.04 0.04 0.06 0.03 0.01 0.00 0.00 0.00 0.00 0.00 0.00 0.00 0.00 0.00 0.00 0.00 0.00 0.00 0.00 0.00 0.00 0.00 0.00 0.00 0.00 0.00 0.00 0.00
0.10 0.06 0.11 0.02 0.03 0.01 0.01 0.00 0.01 0.01 0.05 0.08 0.10 0.13 0.08 0.16 0.05 0.01 0.02 0.00 0.00 0.00 0.00 0.00 0.00 0.00 0.00 0.00 0.00 0.00 0.00 0.00 0.00 0.00 0.00 0.00 0.00 0.00 0.00 0.00 0.00 0.00 0.00 0.00
0.04 0.02 0.04 0.03 0.03 0.02 0.01 0.01 0.01 0.01 0.06 0.09 0.12 0.12 0.09 0.08 0.01 0.00 0.00 0.00 0.00 0.00 0.00 0.00 0.00 0.00 0.00 0.00 0.00 0.00 0.00 0.00 0.00 0.00 0.00 0.00 0.00 0.00 0.00 0.00 0.00 0.00 0.00 0.00
0.04 0.04 0.02 0.02 0.04 0.05 0.03 0.02 0.01 0.01 0.08 0.19 0.21 0.03 0.01 0.00 0.00 0.00 0.00 0.00 0.00 0.00 0.01 0.01 0.00 0.00 0.00 0.00 0.00 0.00 0.00 0.00 0.00 0.00 0.00 0.00 0.00 0.00 0.00 0.00 0.00 0.00 0.00 0.00

GFSNW_prec_precacc12_162.txt.gz
Total_Precipitation_Accumulation
0.06 0.07 0.06 0.06 0.06 0.03 0.02 0.03 0.04 0.07 0.05 0.03 0.01 0.00 0.00 0.00 0.00 0.00 0.00 0.00 0.00 0.00 0.00 0.00 0.00 0.00 0.00 0.00 0.00 0.00 0.00 0.00 0.00 0.00 0.00 0.00 0.00 0.00 0.01 0.09 0.06 0.09 0.18 0.13
0.08 0.09 0.07 0.08 0.10 0.07 0.03 0.03 0.03 0.11 0.14 0.02 0.01 0.00 0.00 0.00 0.00 0.00 0.00 0.00 0.00 0.00 0.00 0.00 0.00 0.00 0.00 0.00 0.00 0.00 0.00 0.00 0.00 0.00 0.00 0.00 0.00 0.00 0.01 0.03 0.07 0.08 0.13 0.07
0.14 0.11 0.19 0.18 0.16 0.13 0.08 0.05 0.04 0.09 0.15 0.02 0.00 0.00 0.00 0.00 0.00 0.00 0.00 0.00 0.00 0.00 0.00 0.00 0.00 0.00 0.00 0.00 0.00 0.00 0.00 0.00 0.00 0.00 0.00 0.02 0.02 0.00 0.01 0.09 0.15 0.13 0.10 0.06
0.22 0.28 0.23 0.28 0.39 0.28 0.28 0.18 0.04 0.01 0.03 0.02 0.00 0.00 0.00 0.00 0.00 0.00 0.00 0.00 0.00 0.00 0.00 0.00 0.00 0.00 0.00 0.00 0.00 0.00 0.00 0.00 0.00 0.00 0.00 0.00 0.00 0.00 0.00 0.01 0.02 0.05 0.03 0.01
0.23 0.35 0.45 0.47 0.34 0.52 0.94 0.40 0.03 0.01 0.00 0.00 0.00 0.00 0.00 0.00 0.00 0.00 0.00 0.00 0.00 0.00 0.00 0.00 0.00 0.00 0.00 0.00 0.00 0.00 0.00 0.00 0.01 0.01 0.00 0.00 0.00 0.01 0.00 0.00 0.00 0.00 0.00 0.00
0.34 0.34 0.47 0.51 0.65 0.89 1.19 0.42 0.05 0.03 0.02 0.01 0.00 0.00 0.00 0.00 0.02 0.02 0.00 0.00 0.00 0.00 0.00 0.00 0.00 0.00 0.00 0.00 0.00 0.00 0.01 0.01 0.02 0.01 0.00 0.01 0.01 0.00 0.00 0.00 0.00 0.00 0.01 0.00
0.48 0.46 0.43 0.48 0.51 0.95 0.77 0.16 0.09 0.08 0.04 0.01 0.01 0.00 0.00 0.00 0.01 0.01 0.00 0.00 0.00 0.00 0.00 0.00 0.00 0.00 0.00 0.00 0.00 0.00 0.00 0.01 0.02 0.02 0.02 0.04 0.00 0.00 0.00 0.00 0.00 0.01 0.02 0.01
0.38 0.49 0.49 0.44 0.47 0.62 0.56 0.31 0.30 0.18 0.04 0.01 0.01 0.01 0.00 0.00 0.00 0.00 0.00 0.00 0.00 0.00 0.01 0.03 0.01 0.00 0.01 0.00 0.00 0.00 0.00 0.02 0.05 0.05 0.03 0.01 0.00 0.00 0.00 0.02 0.03 0.01 0.01 0.02
0.17 0.44 0.48 0.44 0.40 0.49 0.58 0.37 0.32 0.26 0.09 0.03 0.00 0.01 0.01 0.01 0.01 0.00 0.00 0.00 0.00 0.01 0.05 0.05 0.03 0.01 0.01 0.01 0.02 0.02 0.01 0.03 0.10 0.06 0.11 0.04 0.02 0.05 0.00 0.01 0.03 0.01 0.00 0.00
0.20 0.33 0.39 0.46 0.37 0.36 0.56 0.45 0.30 0.31 0.13 0.02 0.01 0.02 0.02 0.03 0.02 0.03 0.01 0.02 0.06 0.07 0.10 0.09 0.03 0.02 0.01 0.02 0.04 0.06 0.03 0.05 0.11 0.06 0.10 0.02 0.00 0.02 0.02 0.04 0.06 0.00 0.00 0.00
0.23 0.25 0.35 0.37 0.35 0.33 0.46 0.43 0.33 0.33 0.13 0.02 0.01 0.01 0.01 0.03 0.06 0.08 0.09 0.09 0.08 0.12 0.16 0.12 0.06 0.05 0.05 0.05 0.03 0.10 0.15 0.20 0.15 0.12 0.18 0.06 0.00 0.04 0.07 0.06 0.01 0.00 0.00 0.00
0.22 0.21 0.28 0.32 0.27 0.32 0.36 0.51 0.39 0.40 0.19 0.04 0.02 0.00 0.00 0.00 0.01 0.04 0.07 0.10 0.11 0.12 0.13 0.16 0.20 0.18 0.14 0.11 0.11 0.09 0.14 0.16 0.21 0.10 0.08 0.08 0.03 0.06 0.07 0.03 0.00 0.00 0.00 0.00
0.21 0.20 0.22 0.31 0.25 0.29 0.34 0.40 0.40 0.44 0.16 0.02 0.00 0.00 0.00 0.00 0.00 0.01 0.04 0.02 0.05 0.08 0.10 0.15 0.16 0.13 0.10 0.11 0.08 0.09 0.09 0.10 0.25 0.22 0.08 0.13 0.10 0.01 0.01 0.00 0.00 0.00 0.00 0.00
0.22 0.19 0.23 0.26 0.30 0.26 0.36 0.33 0.31 0.24 0.09 0.04 0.00 0.00 0.00 0.00 0.00 0.00 0.00 0.00 0.02 0.04 0.13 0.27 0.18 0.11 0.09 0.12 0.18 0.21 0.17 0.17 0.28 0.32 0.22 0.14 0.15 0.06 0.03 0.00 0.00 0.00 0.00 0.00
0.25 0.20 0.25 0.27 0.30 0.34 0.44 0.35 0.25 0.11 0.11 0.12 0.01 0.00 0.00 0.00 0.00 0.01 0.01 0.01 0.03 0.11 0.16 0.21 0.10 0.05 0.08 0.06 0.06 0.02 0.01 0.08 0.17 0.24 0.18 0.07 0.07 0.01 0.00 0.01 0.00 0.00 0.00 0.00
0.27 0.22 0.27 0.30 0.38 0.63 0.76 0.79 0.43 0.19 0.13 0.07 0.01 0.00 0.00 0.00 0.00 0.02 0.04 0.05 0.11 0.21 0.14 0.07 0.04 0.02 0.11 0.11 0.04 0.00 0.02 0.05 0.10 0.14 0.11 0.06 0.01 0.01 0.01 0.01 0.00 0.00 0.00 0.00
0.30 0.28 0.36 0.41 0.58 0.54 0.46 0.29 0.12 0.06 0.11 0.09 0.03 0.01 0.02 0.00 0.01 0.02 0.05 0.12 0.22 0.24 0.19 0.11 0.03 0.04 0.14 0.16 0.03 0.01 0.00 0.00 0.01 0.01 0.01 0.00 0.00 0.00 0.00 0.00 0.00 0.00 0.00 0.00
0.38 0.45 0.52 0.57 0.50 0.41 0.23 0.09 0.01 0.03 0.05 0.06 0.05 0.02 0.08 0.04 0.04 0.07 0.08 0.14 0.19 0.26 0.29 0.19 0.04 0.05 0.11 0.11 0.00 0.00 0.00 0.00 0.00 0.00 0.00 0.00 0.00 0.00 0.00 0.00 0.00 0.00 0.00 0.00
0.58 0.59 0.54 0.42 0.31 0.22 0.14 0.08 0.04 0.07 0.07 0.10 0.04 0.01 0.09 0.05 0.09 0.14 0.18 0.18 0.22 0.21 0.17 0.05 0.07 0.12 0.09 0.01 0.00 0.00 0.00 0.00 0.00 0.00 0.00 0.00 0.00 0.00 0.00 0.00 0.00 0.00 0.00 0.00
0.19 0.19 0.24 0.25 0.15 0.10 0.12 0.21 0.27 0.26 0.22 0.06 0.05 0.02 0.08 0.08 0.21 0.30 0.21 0.18 0.16 0.10 0.04 0.04 0.07 0.03 0.00 0.00 0.00 0.00 0.00 0.01 0.01 0.02 0.01 0.00 0.00 0.00 0.00 0.00 0.00 0.00 0.00 0.00
0.07 0.10 0.12 0.11 0.16 0.20 0.20 0.20 0.16 0.15 0.09 0.02 0.01 0.00 0.04 0.09 0.10 0.19 0.24 0.26 0.21 0.15 0.08 0.07 0.07 0.01 0.00 0.00 0.00 0.00 0.02 0.01 0.01 0.01 0.00 0.00 0.00 0.00 0.00 0.00 0.00 0.00 0.00 0.00
0.01 0.03 0.10 0.26 0.25 0.20 0.13 0.14 0.08 0.05 0.04 0.01 0.01 0.01 0.01 0.06 0.08 0.14 0.13 0.20 0.31 0.29 0.15 0.09 0.03 0.00 0.00 0.00 0.01 0.02 0.02 0.02 0.01 0.00 0.00 0.00 0.00 0.00 0.00 0.00 0.00 0.00 0.00 0.00
0.02 0.07 0.12 0.15 0.12 0.17 0.07 0.08 0.04 0.06 0.05 0.04 0.06 0.02 0.02 0.06 0.07 0.09 0.08 0.13 0.06 0.08 0.12 0.02 0.00 0.00 0.00 0.00 0.00 0.00 0.00 0.01 0.02 0.00 0.00 0.00 0.00 0.00 0.00 0.00 0.00 0.00 0.00 0.00
0.04 0.07 0.08 0.10 0.10 0.02 0.02 0.05 0.05 0.06 0.07 0.09 0.11 0.09 0.06 0.05 0.04 0.04 0.07 0.07 0.03 0.00 0.00 0.00 0.00 0.00 0.00 0.00 0.00 0.00 0.00 0.00 0.00 0.00 0.00 0.00 0.00 0.00 0.00 0.00 0.00 0.00 0.00 0.00
0.04 0.05 0.10 0.02 0.02 0.01 0.01 0.00 0.01 0.02 0.05 0.11 0.21 0.28 0.14 0.18 0.06 0.02 0.02 0.00 0.00 0.00 0.00 0.00 0.00 0.00 0.00 0.00 0.00 0.00 0.00 0.00 0.00 0.00 0.00 0.00 0.00 0.00 0.00 0.00 0.00 0.00 0.00 0.00
0.03 0.02 0.04 0.03 0.02 0.02 0.01 0.01 0.01 0.01 0.11 0.29 0.33 0.33 0.17 0.17 0.03 0.02 0.01 0.00 0.00 0.00 0.00 0.00 0.00 0.00 0.00 0.00 0.00 0.00 0.00 0.00 0.00 0.00 0.00 0.00 0.00 0.00 0.00 0.00 0.00 0.00 0.00 0.00
0.04 0.04 0.02 0.02 0.03 0.04 0.02 0.01 0.01 0.01 0.13 0.40 0.36 0.12 0.04 0.02 0.02 0.00 0.00 0.00 0.00 0.00 0.00 0.00 0.00 0.00 0.00 0.00 0.00 0.00 0.00 0.00 0.00 0.00 0.00 0.00 0.00 0.00 0.00 0.00 0.00 0.00 0.00 0.00

GFSNW_prec_precacc12_168.txt.gz
Total_Precipitation_Accumulation
0.03 0.06 0.05 0.06 0.13 0.25 0.18 0.12 0.08 0.04 0.03 0.02 0.01 0.00 0.00 0.00 0.00 0.00 0.00 0.00 0.00 0.00 0.00 0.00 0.00 0.00 0.00 0.00 0.00 0.00 0.00 0.00 0.00 0.00 0.00 0.00 0.00 0.00 0.00 0.00 0.00 0.01 0.04 0.01
0.02 0.05 0.06 0.08 0.15 0.36 0.22 0.19 0.09 0.08 0.09 0.02 0.00 0.00 0.00 0.00 0.00 0.00 0.00 0.00 0.00 0.00 0.00 0.00 0.00 0.00 0.00 0.00 0.00 0.00 0.00 0.00 0.00 0.00 0.00 0.00 0.00 0.00 0.00 0.00 0.00 0.00 0.01 0.01
0.02 0.05 0.16 0.18 0.18 0.29 0.34 0.50 0.35 0.27 0.23 0.02 0.00 0.00 0.00 0.00 0.00 0.00 0.00 0.00 0.00 0.00 0.00 0.00 0.00 0.00 0.00 0.00 0.00 0.00 0.00 0.00 0.00 0.00 0.00 0.00 0.00 0.00 0.00 0.00 0.01 0.01 0.00 0.00
0.01 0.07 0.14 0.26 0.40 0.41 0.58 0.64 0.40 0.15 0.25 0.05 0.01 0.00 0.00 0.00 0.00 0.00 0.00 0.00 0.00 0.00 0.00 0.00 0.00 0.00 0.00 0.00 0.00 0.00 0.00 0.00 0.00 0.00 0.00 0.00 0.00 0.00 0.00 0.00 0.00 0.00 0.00 0.00
0.01 0.07 0.25 0.42 0.34 0.63 1.36 0.94 0.35 0.14 0.06 0.01 0.02 0.01 0.00 0.00 0.00 0.00 0.00 0.00 0.00 0.00 0.00 0.00 0.00 0.00 0.00 0.00 0.00 0.00 0.00 0.00 0.00 0.00 0.00 0.00 0.00 0.00 0.00 0.00 0.00 0.00 0.00 0.00
0.01 0.03 0.19 0.42 0.64 0.96 1.67 0.86 0.31 0.28 0.16 0.06 0.08 0.05 0.00 0.00 0.02 0.02 0.00 0.00 0.00 0.00 0.00 0.00 0.00 0.00 0.00 0.00 0.00 0.00 0.00 0.00 0.00 0.00 0.00 0.00 0.00 0.00 0.00 0.00 0.00 0.00 0.00 0.00
0.00 0.02 0.09 0.37 0.47 0.99 0.97 0.53 0.39 0.53 0.32 0.10 0.07 0.02 0.00 0.00 0.01 0.02 0.01 0.02 0.01 0.00 0.00 0.00 0.00 0.00 0.00 0.00 0.00 0.00 0.00 0.00 0.00 0.00 0.01 0.02 0.00 0.00 0.00 0.00 0.00 0.00 0.01 0.01
0.01 0.02 0.06 0.28 0.45 0.64 0.59 0.43 0.75 0.77 0.40 0.08 0.02 0.01 0.01 0.01 0.01 0.02 0.01 0.00 0.00 0.00 0.01 0.01 0.00 0.00 0.00 0.00 0.00 0.00 0.00 0.00 0.02 0.02 0.01 0.00 0.00 0.00 0.00 0.00 0.00 0.01 0.01 0.02
0.00 0.01 0.05 0.19 0.35 0.51 0.57 0.40 0.49 0.70 0.47 0.13 0.01 0.05 0.05 0.06 0.03 0.02 0.00 0.00 0.00 0.02 0.11 0.08 0.06 0.01 0.00 0.00 0.00 0.01 0.00 0.00 0.04 0.02 0.06 0.01 0.00 0.00 0.00 0.01 0.01 0.01 0.00 0.00
0.01 0.01 0.05 0.19 0.28 0.36 0.55 0.44 0.40 0.61 0.44 0.06 0.01 0.05 0.04 0.05 0.04 0.02 0.00 0.00 0.00 0.02 0.10 0.14 0.04 0.00 0.00 0.00 0.00 0.00 0.01 0.01 0.04 0.03 0.09 0.01 0.00 0.00 0.01 0.03 0.02 0.00 0.00 0.01
0.02 0.03 0.07 0.17 0.26 0.30 0.46 0.39 0.42 0.58 0.33 0.06 0.02 0.02 0.03 0.03 0.03 0.02 0.02 0.04 0.04 0.02 0.05 0.06 0.02 0.01 0.00 0.01 0.00 0.02 0.09 0.17 0.13 0.11 0.17 0.04 0.00 0.02 0.03 0.03 0.01 0.00 0.02 0.03
0.03 0.06 0.14 0.21 0.22 0.29 0.37 0.45 0.39 0.54 0.48 0.17 0.01 0.00 0.01 0.02 0.01 0.00 0.02 0.05 0.06 0.06 0.04 0.06 0.07 0.06 0.05 0.05 0.05 0.08 0.10 0.20 0.34 0.28 0.12 0.03 0.01 0.04 0.08 0.04 0.01 0.01 0.01 0.01
0.09 0.13 0.13 0.22 0.22 0.26 0.34 0.34 0.38 0.69 0.54 0.18 0.05 0.02 0.00 0.00 0.00 0.00 0.01 0.02 0.05 0.07 0.07 0.07 0.06 0.04 0.02 0.04 0.02 0.06 0.10 0.17 0.20 0.17 0.09 0.09 0.07 0.01 0.01 0.00 0.00 0.00 0.00 0.00
0.10 0.16 0.20 0.22 0.28 0.24 0.36 0.27 0.32 0.47 0.32 0.19 0.03 0.00 0.02 0.01 0.00 0.00 0.00 0.00 0.01 0.02 0.03 0.09 0.13 0.07 0.03 0.01 0.06 0.12 0.09 0.09 0.16 0.26 0.20 0.14 0.14 0.09 0.04 0.01 0.00 0.00 0.00 0.00
0.16 0.17 0.22 0.25 0.31 0.32 0.46 0.33 0.19 0.17 0.30 0.27 0.07 0.01 0.01 0.01 0.00 0.00 0.00 0.00 0.00 0.00 0.01 0.02 0.03 0.01 0.01 0.01 0.01 0.00 0.01 0.04 0.10 0.16 0.12 0.05 0.04 0.01 0.01 0.02 0.02 0.01 0.00 0.00
0.25 0.23 0.29 0.32 0.39 0.60 0.78 0.92 0.55 0.23 0.24 0.19 0.08 0.02 0.01 0.01 0.00 0.00 0.00 0.00 0.01 0.02 0.01 0.00 0.01 0.00 0.02 0.02 0.01 0.00 0.02 0.05 0.09 0.11 0.11 0.07 0.02 0.01 0.02 0.03 0.00 0.00 0.00 0.00
0.34 0.34 0.39 0.43 0.54 0.53 0.44 0.38 0.23 0.14 0.17 0.19 0.05 0.01 0.00 0.00 0.00 0.00 0.00 0.02 0.04 0.05 0.04 0.01 0.00 0.01 0.07 0.08 0.01 0.00 0.00 0.00 0.01 0.00 0.01 0.00 0.00 0.00 0.00 0.00 0.00 0.00 0.00 0.00
0.42 0.53 0.61 0.68 0.50 0.49 0.28 0.12 0.11 0.13 0.17 0.11 0.05 0.00 0.01 0.02 0.02 0.03 0.03 0.06 0.09 0.10 0.06 0.08 0.03 0.04 0.06 0.06 0.00 0.00 0.00 0.00 0.00 0.00 0.00 0.00 0.00 0.00 0.00 0.00 0.00 0.00 0.00 0.00
0.65 0.81 0.90 0.54 0.35 0.38 0.24 0.34 0.30 0.23 0.17 0.07 0.01 0.00 0.02 0.04 0.03 0.00 0.01 0.03 0.07 0.08 0.09 0.02 0.07 0.08 0.06 0.01 0.00 0.00 0.00 0.00 0.00 0.00 0.00 0.00 0.00 0.00 0.00 0.00 0.00 0.00 0.00 0.00
0.54 0.51 0.65 0.52 0.29 0.23 0.20 0.49 0.44 0.33 0.13 0.01 0.01 0.00 0.01 0.05 0.11 0.10 0.07 0.10 0.10 0.08 0.02 0.03 0.08 0.02 0.00 0.00 0.00 0.00 0.00 0.01 0.01 0.02 0.01 0.01 0.00 0.00 0.00 0.00 0.00 0.00 0.00 0.00
0.29 0.39 0.60 0.40 0.34 0.33 0.25 0.23 0.16 0.10 0.03 0.00 0.00 0.00 0.01 0.05 0.03 0.09 0.19 0.21 0.20 0.15 0.04 0.04 0.06 0.01 0.00 0.00 0.00 0.00 0.02 0.01 0.01 0.01 0.01 0.00 0.01 0.03 0.08 0.11 0.08 0.04 0.01 0.00
0.12 0.28 0.35 0.25 0.18 0.14 0.07 0.02 0.01 0.01 0.00 0.00 0.00 0.00 0.00 0.01 0.05 0.07 0.13 0.25 0.48 0.41 0.33 0.21 0.04 0.00 0.00 0.00 0.00 0.01 0.02 0.02 0.01 0.00 0.00 0.00 0.00 0.00 0.00 0.01 0.02 0.01 0.00 0.00
0.10 0.04 0.04 0.03 0.02 0.01 0.00 0.00 0.00 0.00 0.01 0.01 0.03 0.01 0.00 0.01 0.02 0.01 0.06 0.13 0.11 0.22 0.45 0.20 0.02 0.00 0.00 0.00 0.00 0.00 0.00 0.01 0.02 0.00 0.00 0.00 0.00 0.00 0.00 0.00 0.00 0.00 0.00 0.00
0.01 0.00 0.00 0.02 0.03 0.00 0.01 0.01 0.01 0.01 0.05 0.07 0.08 0.05 0.01 0.00 0.01 0.02 0.05 0.07 0.06 0.05 0.00 0.00 0.00 0.00 0.00 0.00 0.00 0.00 0.00 0.00 0.00 0.00 0.00 0.00 0.00 0.00 0.00 0.00 0.00 0.00 0.00 0.00
0.00 0.01 0.02 0.01 0.01 0.00 0.00 0.00 0.00 0.01 0.05 0.10 0.20 0.25 0.24 0.23 0.05 0.02 0.01 0.02 0.01 0.00 0.00 0.00 0.00 0.00 0.00 0.00 0.00 0.00 0.00 0.00 0.00 0.00 0.00 0.00 0.00 0.00 0.00 0.00 0.00 0.00 0.00 0.00
0.00 0.00 0.00 0.01 0.00 0.00 0.00 0.00 0.00 0.01 0.09 0.27 0.50 0.61 0.41 0.41 0.06 0.03 0.01 0.00 0.00 0.00 0.00 0.00 0.00 0.00 0.00 0.00 0.00 0.00 0.00 0.00 0.00 0.00 0.00 0.00 0.00 0.00 0.00 0.00 0.00 0.00 0.00 0.00
0.00 0.01 0.00 0.00 0.00 0.02 0.01 0.00 0.00 0.01 0.10 0.38 0.55 0.35 0.21 0.15 0.08 0.01 0.00 0.00 0.00 0.00 0.00 0.00 0.00 0.00 0.00 0.00 0.00 0.00 0.00 0.00 0.00 0.00 0.00 0.00 0.00 0.00 0.00 0.00 0.00 0.00 0.00 0.00

GFSNW_prec_precacc12_171.txt.gz
Total_Precipitation_Accumulation
0.00 0.01 0.03 0.06 0.13 0.25 0.20 0.13 0.09 0.01 0.00 0.01 0.00 0.00 0.00 0.00 0.00 0.00 0.00 0.00 0.00 0.00 0.00 0.00 0.00 0.00 0.00 0.00 0.00 0.00 0.00 0.00 0.00 0.00 0.00 0.00 0.00 0.00 0.00 0.00 0.00 0.00 0.00 0.00
0.00 0.00 0.02 0.05 0.14 0.38 0.24 0.21 0.10 0.08 0.08 0.06 0.01 0.00 0.00 0.00 0.00 0.00 0.00 0.00 0.00 0.00 0.00 0.00 0.00 0.00 0.00 0.00 0.00 0.00 0.00 0.00 0.00 0.00 0.00 0.00 0.00 0.00 0.00 0.00 0.00 0.00 0.00 0.00
0.00 0.00 0.01 0.07 0.16 0.29 0.38 0.55 0.44 0.32 0.30 0.06 0.00 0.00 0.00 0.00 0.00 0.00 0.00 0.00 0.00 0.00 0.00 0.00 0.00 0.00 0.00 0.00 0.00 0.00 0.00 0.00 0.00 0.00 0.00 0.00 0.00 0.00 0.00 0.00 0.00 0.00 0.00 0.00
0.00 0.00 0.01 0.05 0.18 0.37 0.61 0.70 0.47 0.22 0.40 0.10 0.01 0.00 0.00 0.00 0.00 0.00 0.00 0.00 0.00 0.00 0.00 0.00 0.00 0.00 0.00 0.00 0.00 0.00 0.00 0.00 0.00 0.00 0.00 0.00 0.00 0.00 0.00 0.00 0.00 0.00 0.00 0.00
0.01 0.01 0.01 0.04 0.16 0.49 1.22 0.98 0.39 0.20 0.13 0.06 0.09 0.06 0.02 0.00 0.00 0.00 0.00 0.00 0.00 0.00 0.00 0.00 0.00 0.00 0.00 0.00 0.00 0.00 0.00 0.00 0.00 0.00 0.00 0.00 0.00 0.00 0.00 0.00 0.00 0.00 0.00 0.00
0.00 0.01 0.01 0.03 0.24 0.64 1.37 0.84 0.36 0.39 0.25 0.12 0.22 0.20 0.03 0.00 0.03 0.05 0.00 0.00 0.00 0.00 0.00 0.00 0.00 0.00 0.00 0.00 0.00 0.00 0.00 0.00 0.00 0.00 0.00 0.00 0.00 0.00 0.00 0.00 0.00 0.00 0.00 0.00
0.00 0.01 0.01 0.02 0.09 0.61 0.84 0.54 0.41 0.62 0.38 0.13 0.10 0.06 0.06 0.05 0.04 0.07 0.02 0.04 0.03 0.00 0.00 0.00 0.00 0.00 0.00 0.00 0.00 0.00 0.00 0.00 0.00 0.00 0.01 0.01 0.00 0.00 0.00 0.00 0.00 0.00 0.00 0.00
0.01 0.01 0.02 0.03 0.08 0.31 0.49 0.44 0.78 0.82 0.44 0.10 0.02 0.01 0.02 0.04 0.05 0.13 0.10 0.04 0.04 0.02 0.01 0.02 0.01 0.00 0.00 0.00 0.00 0.00 0.00 0.00 0.01 0.01 0.01 0.00 0.00 0.00 0.00 0.00 0.00 0.00 0.00 0.00
0.01 0.01 0.00 0.01 0.03 0.26 0.45 0.38 0.52 0.73 0.52 0.14 0.01 0.06 0.07 0.13 0.09 0.05 0.03 0.01 0.03 0.04 0.11 0.13 0.13 0.04 0.01 0.00 0.00 0.00 0.00 0.01 0.03 0.02 0.05 0.00 0.00 0.00 0.00 0.00 0.00 0.00 0.00 0.00
0.02 0.01 0.01 0.00 0.00 0.10 0.41 0.39 0.39 0.62 0.48 0.06 0.01 0.06 0.06 0.08 0.07 0.07 0.01 0.01 0.01 0.02 0.10 0.18 0.14 0.10 0.04 0.03 0.00 0.00 0.00 0.00 0.02 0.01 0.08 0.01 0.00 0.00 0.00 0.00 0.00 0.00 0.00 0.01
0.03 0.03 0.02 0.01 0.01 0.04 0.27 0.31 0.37 0.56 0.34 0.06 0.03 0.04 0.07 0.10 0.09 0.07 0.05 0.06 0.02 0.01 0.03 0.05 0.04 0.04 0.03 0.02 0.00 0.01 0.02 0.03 0.06 0.09 0.15 0.04 0.00 0.00 0.00 0.01 0.01 0.00 0.03 0.03
0.04 0.04 0.02 0.01 0.02 0.07 0.25 0.34 0.31 0.53 0.48 0.17 0.02 0.00 0.01 0.05 0.08 0.18 0.17 0.07 0.04 0.03 0.02 0.02 0.03 0.04 0.02 0.02 0.01 0.04 0.05 0.12 0.30 0.27 0.11 0.02 0.00 0.00 0.03 0.02 0.01 0.01 0.01 0.01
0.07 0.07 0.05 0.01 0.01 0.15 0.27 0.28 0.32 0.65 0.52 0.19 0.05 0.02 0.00 0.01 0.02 0.08 0.15 0.03 0.04 0.06 0.05 0.04 0.04 0.03 0.02 0.03 0.01 0.03 0.06 0.15 0.19 0.16 0.08 0.04 0.01 0.01 0.00 0.01 0.03 0.01 0.00 0.01
0.05 0.08 0.12 0.07 0.04 0.09 0.33 0.25 0.29 0.44 0.32 0.22 0.03 0.00 0.02 0.02 0.01 0.04 0.06 0.02 0.02 0.03 0.02 0.08 0.13 0.07 0.03 0.01 0.00 0.00 0.01 0.04 0.07 0.10 0.12 0.10 0.06 0.07 0.04 0.01 0.00 0.00 0.00 0.00
0.08 0.07 0.06 0.07 0.15 0.20 0.42 0.31 0.14 0.16 0.31 0.33 0.13 0.02 0.01 0.03 0.05 0.05 0.06 0.02 0.01 0.00 0.00 0.00 0.01 0.01 0.00 0.00 0.00 0.00 0.00 0.00 0.01 0.04 0.09 0.03 0.02 0.01 0.01 0.02 0.02 0.01 0.01 0.00
0.09 0.09 0.11 0.15 0.23 0.50 0.79 0.81 0.43 0.17 0.24 0.23 0.15 0.09 0.05 0.08 0.11 0.07 0.04 0.01 0.00 0.00 0.00 0.00 0.00 0.00 0.00 0.00 0.00 0.00 0.01 0.03 0.04 0.05 0.07 0.07 0.02 0.01 0.02 0.03 0.00 0.01 0.05 0.02
0.13 0.18 0.24 0.31 0.43 0.56 0.44 0.36 0.23 0.13 0.17 0.28 0.12 0.03 0.00 0.03 0.14 0.05 0.00 0.00 0.00 0.02 0.02 0.01 0.00 0.00 0.02 0.02 0.00 0.00 0.00 0.00 0.01 0.00 0.01 0.00 0.00 0.00 0.00 0.00 0.00 0.00 0.00 0.00
0.26 0.45 0.55 0.64 0.50 0.53 0.30 0.14 0.17 0.26 0.20 0.13 0.09 0.01 0.00 0.00 0.01 0.01 0.01 0.02 0.05 0.05 0.02 0.02 0.01 0.03 0.03 0.02 0.00 0.00 0.00 0.00 0.00 0.00 0.00 0.00 0.00 0.00 0.00 0.00 0.00 0.00 0.00 0.00
0.65 0.84 0.96 0.64 0.43 0.41 0.25 0.34 0.40 0.38 0.26 0.13 0.04 0.00 0.00 0.00 0.01 0.00 0.01 0.03 0.06 0.06 0.07 0.02 0.06 0.06 0.04 0.00 0.00 0.00 0.00 0.00 0.00 0.00 0.00 0.00 0.00 0.00 0.00 0.00 0.00 0.00 0.00 0.00
0.61 0.54 0.66 0.51 0.29 0.24 0.24 0.53 0.67 0.61 0.30 0.06 0.02 0.00 0.00 0.00 0.08 0.07 0.04 0.05 0.04 0.05 0.01 0.02 0.07 0.02 0.00 0.00 0.00 0.00 0.00 0.00 0.00 0.01 0.01 0.01 0.00 0.00 0.00 0.00 0.00 0.00 0.00 0.00
0.30 0.34 0.55 0.38 0.28 0.36 0.40 0.38 0.34 0.26 0.13 0.02 0.00 0.00 0.00 0.00 0.00 0.06 0.14 0.12 0.12 0.09 0.01 0.02 0.04 0.00 0.00 0.00 0.00 0.00 0.00 0.00 0.01 0.01 0.01 0.00 0.01 0.03 0.08 0.11 0.08 0.05 0.02 0.01
0.12 0.32 0.50 0.18 0.24 0.31 0.18 0.05 0.02 0.01 0.00 0.00 0.00 0.00 0.00 0.00 0.02 0.05 0.08 0.18 0.31 0.33 0.33 0.24 0.05 0.00 0.00 0.00 0.00 0.00 0.00 0.01 0.01 0.00 0.00 0.00 0.00 0.00 0.00 0.01 0.03 0.04 0.07 0.05
0.24 0.37 0.17 0.04 0.07 0.05 0.01 0.01 0.00 0.00 0.00 0.00 0.00 0.00 0.00 0.01 0.01 0.00 0.01 0.08 0.10 0.23 0.48 0.22 0.02 0.00 0.01 0.03 0.01 0.00 0.00 0.01 0.02 0.00 0.00 0.00 0.00 0.00 0.00 0.00 0.00 0.00 0.00 0.00
0.18 0.11 0.02 0.02 0.01 0.00 0.00 0.00 0.00 0.00 0.01 0.01 0.04 0.04 0.01 0.00 0.01 0.00 0.01 0.04 0.07 0.07 0.01 0.00 0.00 0.00 0.00 0.00 0.00 0.00 0.00 0.00 0.00 0.00 0.00 0.00 0.00 0.00 0.00 0.00 0.00 0.00 0.00 0.00
0.02 0.00 0.00 0.00 0.00 0.00 0.00 0.00 0.00 0.00 0.01 0.04 0.14 0.21 0.22 0.14 0.02 0.01 0.01 0.03 0.02 0.00 0.00 0.00 0.00 0.00 0.00 0.00 0.00 0.00 0.00 0.00 0.00 0.00 0.00 0.00 0.00 0.00 0.00 0.00 0.00 0.00 0.00 0.00
0.00 0.00 0.00 0.00 0.00 0.00 0.00 0.00 0.00 0.00 0.05 0.23 0.42 0.53 0.42 0.37 0.06 0.04 0.01 0.00 0.00 0.00 0.00 0.00 0.00 0.00 0.00 0.00 0.00 0.00 0.00 0.00 0.00 0.00 0.00 0.00 0.00 0.00 0.00 0.00 0.00 0.00 0.00 0.00
0.00 0.00 0.00 0.00 0.00 0.00 0.00 0.00 0.00 0.00 0.05 0.26 0.35 0.33 0.23 0.18 0.12 0.01 0.00 0.00 0.00 0.00 0.00 0.00 0.00 0.00 0.00 0.00 0.00 0.00 0.00 0.00 0.00 0.00 0.00 0.00 0.00 0.00 0.00 0.00 0.00 0.00 0.00 0.00